TimePDT,TemperatureF,Dew PointF,Humidity,Sea Level PressureIn,VisibilityMPH,Wind Direction,Wind SpeedMPH,Gust SpeedMPH,PrecipitationIn,Events,Conditions,WindDirDegrees,DateUTC
12:56 AM,71.1,28.0,20,29.93,10.0,NNW,8.1,-,N/A,,Clear,340,2013-09-28 07:56:00
1:56 AM,69.1,28.0,22,29.94,10.0,North,8.1,-,N/A,,Clear,350,2013-09-28 08:56:00
2:56 AM,69.1,28.0,22,29.93,10.0,NNW,9.2,-,N/A,,Clear,340,2013-09-28 09:56:00
3:56 AM,68.0,28.9,23,29.94,10.0,North,9.2,-,N/A,,Clear,360,2013-09-28 10:56:00
4:56 AM,63.0,30.0,29,29.96,10.0,WNW,3.5,-,N/A,,Clear,290,2013-09-28 11:56:00
5:56 AM,62.1,28.9,29,29.97,10.0,Calm,Calm,-,N/A,,Clear,0,2013-09-28 12:56:00
6:56 AM,62.1,30.0,30,29.99,10.0,West,3.5,-,N/A,,Clear,260,2013-09-28 13:56:00
7:56 AM,69.1,30.9,24,30.01,10.0,Calm,Calm,-,N/A,,Clear,0,2013-09-28 14:56:00
8:56 AM,73.0,32.0,22,30.02,10.0,North,6.9,-,N/A,,Clear,350,2013-09-28 15:56:00
9:56 AM,75.9,33.1,21,30.03,10.0,NNE,10.4,-,N/A,,Clear,20,2013-09-28 16:56:00
10:56 AM,79.0,32.0,18,30.02,10.0,NE,5.8,-,N/A,,Clear,40,2013-09-28 17:56:00
11:56 AM,82.0,28.9,14,30.01,10.0,Variable,3.5,-,N/A,,Clear,0,2013-09-28 18:56:00
12:56 PM,82.9,25.0,12,29.99,10.0,Calm,Calm,-,N/A,,Clear,0,2013-09-28 19:56:00
1:56 PM,86.0,24.1,10,29.95,10.0,Variable,4.6,-,N/A,,Clear,0,2013-09-28 20:56:00
2:56 PM,87.1,21.9,9,29.94,10.0,ESE,3.5,-,N/A,,Clear,110,2013-09-28 21:56:00
3:56 PM,89.1,21.9,9,29.92,10.0,Variable,3.5,-,N/A,,Clear,0,2013-09-28 22:56:00
4:56 PM,89.1,21.0,8,29.91,10.0,NNE,6.9,-,N/A,,Clear,20,2013-09-28 23:56:00
5:56 PM,86.0,19.9,9,29.92,10.0,NE,4.6,-,N/A,,Clear,50,2013-09-29 00:56:00
6:56 PM,81.0,23.0,12,29.92,10.0,Calm,Calm,-,N/A,,Clear,0,2013-09-29 01:56:00
7:56 PM,75.9,19.9,12,29.93,10.0,WSW,5.8,-,N/A,,Clear,250,2013-09-29 02:56:00
8:56 PM,73.9,19.0,13,29.94,10.0,West,8.1,-,N/A,,Clear,260,2013-09-29 03:56:00
9:56 PM,72.0,17.1,12,29.95,10.0,West,8.1,-,N/A,,Clear,270,2013-09-29 04:56:00
10:56 PM,70.0,18.0,14,29.96,10.0,Calm,Calm,-,N/A,,Clear,0,2013-09-29 05:56:00
11:56 PM,68.0,17.1,14,29.96,10.0,WSW,5.8,-,N/A,,Clear,250,2013-09-29 06:56:00